Aiguafreda





Hora UTC 03:00
Temperatura 8.9 ºC
Sòl 15 cm 7.9 ºC
Humitat 93.9 %
Pressió 1018.0 hPa
Pluja 0.0 mm
Velocitat vent 0.0 km/h
Direcció vent NNE
Radiació solar 0.0 W/m²

Dades diàries 2020-09-29



Hora UTC (hivern +1h; estiu +2h)
Temperatura (ºC) Humitat (%) Pressió (hPa) Velocitat vent (km/h) Precipitació (mm) Radiació solar (W/m²)
Hora UTC Aire Sòl 15 cm Humitat Pressió Vel. Dir. Vel. Max Dir. Intent. màx 5 min. Rad. Sol.
00:05 10.0 8.9 91.8 1018.5 0.0 NNE 0.0 WNW 0.0 0.0
00:10 9.9 8.8 91.8 1018.5 0.0 NNE 0.0 WNW 0.0 0.0
00:15 9.9 8.8 91.9 1018.4 0.0 NNE 0.0 N 0.0 0.0
00:20 9.9 8.8 92.0 1018.5 0.0 NNE 0.0 NNW 0.0 0.0
00:25 9.9 8.7 92.1 1018.5 0.0 NNE 0.0 NNW 0.0 0.0
00:30 9.9 8.7 92.1 1018.4 0.0 NNE 0.0 NE 0.0 0.0
00:35 9.9 8.7 92.1 1018.3 0.0 NNE 0.0 NW 0.0 0.0
00:40 9.9 8.8 92.1 1018.4 0.0 NNE 0.0 SW 0.0 0.0
00:45 9.8 8.7 92.0 1018.4 0.0 NNE 0.0 SW 0.0 0.0
00:50 9.8 8.7 91.9 1018.3 0.0 NNE 0.0 SW 0.0 0.0
00:55 9.7 8.7 91.9 1018.3 0.0 NNE 0.0 SW 0.0 0.0
01:00 9.7 8.6 92.1 1018.4 0.0 NNE 0.0 WSW 0.0 0.0
01:05 9.6 8.6 92.2 1018.3 0.0 NNE 0.0 WSW 0.0 0.0
01:10 9.6 8.5 92.4 1018.2 0.0 NNE 0.0 WSW 0.0 0.0
01:15 9.6 8.5 92.5 1018.3 0.0 NNE 0.0 WSW 0.0 0.0
01:20 9.5 8.4 92.6 1018.2 0.0 NNE 0.0 WSW 0.0 0.0
01:25 9.4 8.4 92.7 1018.3 0.0 NNE 0.0 WSW 0.0 0.0
01:30 9.4 8.3 92.8 1018.3 0.0 NNE 0.0 WSW 0.0 0.0
01:35 9.4 8.3 93.0 1018.3 0.0 NNE 0.0 NNW 0.0 0.0
01:40 9.4 8.3 93.0 1018.4 0.0 NNE 0.0 SW 0.0 0.0
01:45 9.3 8.2 93.0 1018.5 0.0 NNE 0.0 SW 0.0 0.0
01:50 9.2 8.1 93.0 1018.5 0.0 NNE 0.0 E 0.0 0.0
01:55 9.2 8.1 93.3 1018.4 0.0 NNE 0.0 ENE 0.0 0.0
02:00 9.2 8.0 93.4 1018.4 0.0 NNE 0.0 ENE 0.0 0.0
02:05 9.1 8.0 93.4 1018.3 0.0 NNE 0.0 ENE 0.0 0.0
02:10 9.1 8.0 93.6 1018.4 0.0 NNE 0.0 NW 0.0 0.0
02:15 9.1 7.9 93.6 1018.4 0.0 NNE 0.0 NW 0.0 0.0
02:20 9.0 7.9 93.7 1018.4 0.0 NNE 0.0 NW 0.0 0.0
02:25 9.0 7.8 93.7 1018.3 0.0 NNE 0.0 NW 0.0 0.0
02:30 8.9 7.8 93.7 1018.2 0.0 NNE 0.0 NW 0.0 0.0
02:35 8.9 7.8 93.8 1018.2 0.0 NNE 0.0 NW 0.0 0.0
02:40 8.9 7.8 93.9 1018.1 0.0 NNE 0.0 NE 0.0 0.0
02:45 8.9 7.9 94.0 1018.1 0.0 NNE 0.0 NE 0.0 0.0
02:50 8.9 7.9 94.0 1018.0 0.0 NNE 0.0 NE 0.0 0.0
02:55 8.9 7.9 93.9 1018.0 0.0 NNE 0.0 NNW 0.0 0.0
03:00 8.9 7.9 93.9 1018.0 0.0 NNE 0.0 NNW 0.0 0.0
Màxima 10.0 8.9 94.0 1018.5 0.0 NNE 0.0 NNW 0.0 0.0
Mínima 8.9 7.8 91.8 1018.0
Total 0.0